• In France
  • List of Countries
  • For 7 days
  • Water Temperature
  • Satellite Maps
  • Weather Map
  • Weather Widgets
  • user-avatar
    Login

    Hourly Weather Bangor

    Today, 18 November, Saturday

    Time Temperature Precipitation Wind Pressure Humidity
    00:00 +1°C° 0 mm 3 mps 752 mmHg 89%
    01:00 +2°C° 0 mm 3 mps 752 mmHg 89%
    02:00 +2°C° 0 mm 3 mps 752 mmHg 90%
    03:00 +2°C° 0 mm 3 mps 751 mmHg 90%
    04:00 +3°C° 0 mm 3 mps 751 mmHg 91%
    05:00 +3°C° 0 mm 4 mps 751 mmHg 91%
    06:00 +4°C° 0 mm 4 mps 750 mmHg 92%
    07:00 +5°C° 0.2 mm 4 mps 750 mmHg 93%
    08:00 +6°C° 0.2 mm 4 mps 750 mmHg 93%
    09:00 +6°C° 0.2 mm 5 mps 750 mmHg 94%
    10:00 +7°C° 0.4 mm 5 mps 750 mmHg 94%
    11:00 +7°C° 0.4 mm 5 mps 750 mmHg 94%
    12:00 +8°C° 0.4 mm 5 mps 750 mmHg 94%
    13:00 +8°C° 0.1 mm 4 mps 749 mmHg 93%
    14:00 +8°C° 0.1 mm 4 mps 749 mmHg 93%
    15:00 +8°C° 0.1 mm 4 mps 749 mmHg 92%
    16:00 +8°C° 0.4 mm 3 mps 749 mmHg 92%
    17:00 +8°C° 0.4 mm 3 mps 749 mmHg 93%
    18:00 +7°C° 0.4 mm 3 mps 749 mmHg 93%
    19:00 +7°C° 0.1 mm 2 mps 749 mmHg 92%
    20:00 +6°C° 0.1 mm 2 mps 749 mmHg 91%
    21:00 +6°C° 0.1 mm 2 mps 749 mmHg 90%
    22:00 +5°C° 0 mm 2 mps 749 mmHg 90%
    23:00 +5°C° 0 mm 2 mps 750 mmHg 90%

    Tomorrow, 19 November, Sunday

    Time Temperature Precipitation Wind Pressure Humidity
    00:00 +6°C° 0 mm 1 mps 750 mmHg 89%
    01:00 +5°C° 0 mm 1 mps 750 mmHg 89%
    02:00 +5°C° 0 mm 1 mps 750 mmHg 89%
    03:00 +5°C° 0 mm 1 mps 750 mmHg 89%
    04:00 +5°C° 0 mm 1 mps 750 mmHg 88%
    05:00 +5°C° 0 mm 1 mps 750 mmHg 88%
    06:00 +5°C° 0 mm 1 mps 750 mmHg 87%
    07:00 +5°C° 0 mm 1 mps 750 mmHg 86%
    08:00 +6°C° 0 mm 1 mps 750 mmHg 85%
    09:00 +6°C° 0 mm 1 mps 751 mmHg 84%
    10:00 +7°C° 0 mm 1 mps 751 mmHg 83%
    11:00 +7°C° 0 mm 1 mps 751 mmHg 81%
    12:00 +7°C° 0 mm 2 mps 751 mmHg 79%
    13:00 +7°C° 0 mm 2 mps 750 mmHg 82%
    14:00 +7°C° 0 mm 2 mps 750 mmHg 85%
    15:00 +7°C° 0 mm 2 mps 750 mmHg 88%
    16:00 +7°C° 0 mm 2 mps 749 mmHg 90%
    17:00 +7°C° 0 mm 3 mps 749 mmHg 93%
    18:00 +5°C° 0 mm 3 mps 749 mmHg 95%
    19:00 +7°C° 0 mm 3 mps 748 mmHg 95%
    20:00 +6°C° 0 mm 4 mps 748 mmHg 96%
    21:00 +7°C° 0 mm 4 mps 748 mmHg 96%
    22:00 +7°C° 0 mm 5 mps 748 mmHg 95%
    23:00 +7°C° 0 mm 5 mps 747 mmHg 94%

    Day after tomorrow, 20 November, Monday

    Time Temperature Precipitation Wind Pressure Humidity
    00:00 +8°C° 0 mm 6 mps 747 mmHg 93%
    01:00 +8°C° 0 mm 6 mps 747 mmHg 92%
    02:00 +8°C° 0 mm 7 mps 746 mmHg 92%
    03:00 +9°C° 0 mm 7 mps 745 mmHg 91%
    04:00 +9°C° 0.1 mm 8 mps 745 mmHg 91%
    05:00 +9°C° 0.1 mm 8 mps 745 mmHg 91%
    06:00 +10°C° 0.1 mm 8 mps 744 mmHg 90%
    07:00 +10°C° 0.1 mm 8 mps 744 mmHg 91%
    08:00 +10°C° 0.1 mm 8 mps 744 mmHg 91%
    09:00 +10°C° 0.1 mm 8 mps 744 mmHg 91%
    10:00 +10°C° 0.2 mm 8 mps 744 mmHg 91%
    11:00 +11°C° 0.2 mm 8 mps 743 mmHg 91%
    12:00 +11°C° 0.2 mm 8 mps 743 mmHg 90%
    13:00 +11°C° 0.3 mm 8 mps 743 mmHg 91%
    14:00 +11°C° 0.3 mm 8 mps 743 mmHg 91%
    15:00 +11°C° 0.3 mm 8 mps 742 mmHg 91%
    16:00 +11°C° 0.3 mm 8 mps 742 mmHg 92%
    17:00 +11°C° 0.3 mm 7 mps 742 mmHg 92%
    18:00 +11°C° 0.3 mm 7 mps 742 mmHg 93%
    19:00 +11°C° 0.1 mm 6 mps 743 mmHg 94%
    20:00 +11°C° 0.1 mm 6 mps 743 mmHg 94%
    21:00 +11°C° 0.1 mm 6 mps 743 mmHg 94%
    22:00 +10°C° 0 mm 5 mps 743 mmHg 94%
    23:00 +10°C° 0 mm 5 mps 743 mmHg 94%

    21 November, Tuesday

    Time Temperature Precipitation Wind Pressure Humidity
    00:00 +10°C° 0 mm 5 mps 743 mmHg 94%
    01:00 +10°C° 0 mm 5 mps 743 mmHg 95%
    02:00 +11°C° 0 mm 4 mps 742 mmHg 95%
    03:00 +10°C° 0 mm 4 mps 742 mmHg 95%
    04:00 +10°C° 0 mm 4 mps 742 mmHg 95%
    05:00 +10°C° 0 mm 4 mps 742 mmHg 95%
    06:00 +8°C° 0 mm 4 mps 741 mmHg 94%
    07:00 +9°C° 0 mm 5 mps 741 mmHg 93%
    08:00 +9°C° 0 mm 5 mps 741 mmHg 92%
    09:00 +9°C° 0 mm 6 mps 741 mmHg 91%
    10:00 +10°C° 0 mm 6 mps 741 mmHg 89%
    11:00 +10°C° 0 mm 7 mps 741 mmHg 87%
    12:00 +10°C° 0 mm 7 mps 741 mmHg 85%
    13:00 +10°C° 0 mm 7 mps 740 mmHg 85%
    14:00 +10°C° 0 mm 7 mps 740 mmHg 85%
    15:00 +10°C° 0 mm 6 mps 740 mmHg 85%
    16:00 +10°C° 0 mm 7 mps 739 mmHg 86%
    17:00 +10°C° 0 mm 7 mps 739 mmHg 87%
    18:00 +11°C° 0 mm 7 mps 739 mmHg 87%
    19:00 +10°C° 0 mm 7 mps 739 mmHg 87%
    20:00 +10°C° 0 mm 7 mps 739 mmHg 86%
    21:00 +10°C° 0 mm 7 mps 739 mmHg 86%
    22:00 +10°C° 0 mm 7 mps 738 mmHg 86%
    23:00 +10°C° 0 mm 7 mps 738 mmHg 87%

    22 November, Wednesday

    Time Temperature Precipitation Wind Pressure Humidity
    00:00 +10°C° 0 mm 7 mps 738 mmHg 88%
    01:00 +10°C° 0 mm 7 mps 737 mmHg 88%
    02:00 +10°C° 0 mm 7 mps 737 mmHg 89%
    03:00 +10°C° 0 mm 7 mps 737 mmHg 90%
    04:00 +10°C° 0 mm 7 mps 736 mmHg 90%
    05:00 +10°C° 0 mm 7 mps 736 mmHg 90%
    06:00 +10°C° 0 mm 7 mps 735 mmHg 90%
    07:00 +10°C° 0 mm 7 mps 735 mmHg 89%
    08:00 +10°C° 0 mm 7 mps 735 mmHg 87%
    09:00 +10°C° 0 mm 7 mps 735 mmHg 86%
    10:00 +11°C° 0 mm 7 mps 735 mmHg 82%
    11:00 +12°C° 0 mm 8 mps 735 mmHg 78%
    12:00 +12°C° 0 mm 8 mps 734 mmHg 74%
    13:00 +12°C° 0 mm 8 mps 734 mmHg 72%
    14:00 +12°C° 0 mm 7 mps 734 mmHg 71%
    15:00 +12°C° 0 mm 7 mps 733 mmHg 70%
    16:00 +11°C° 0 mm 7 mps 733 mmHg 72%
    17:00 +11°C° 0 mm 6 mps 732 mmHg 74%
    18:00 +10°C° 0 mm 6 mps 732 mmHg 76%
    19:00 +10°C° 0 mm 6 mps 732 mmHg 77%
    20:00 +10°C° 0 mm 6 mps 731 mmHg 78%
    21:00 +10°C° 0 mm 7 mps 731 mmHg 79%
    22:00 +9°C° 0 mm 7 mps 730 mmHg 80%
    23:00 +9°C° 0 mm 7 mps 729 mmHg 81%

    23 November, Thursday

    Time Temperature Precipitation Wind Pressure Humidity
    00:00 +9°C° 0 mm 7 mps 729 mmHg 82%
    01:00 +9°C° 0 mm 7 mps 728 mmHg 82%
    02:00 +9°C° 0 mm 7 mps 727 mmHg 82%
    03:00 +10°C° 0 mm 7 mps 726 mmHg 81%
    04:00 +10°C° 0 mm 8 mps 726 mmHg 81%
    05:00 +10°C° 0 mm 8 mps 725 mmHg 80%
    06:00 +11°C° 0 mm 9 mps 724 mmHg 79%
    07:00 +11°C° 0.2 mm 10 mps 724 mmHg 81%
    08:00 +11°C° 0.2 mm 10 mps 723 mmHg 82%
    09:00 +11°C° 0.2 mm 11 mps 722 mmHg 84%
    10:00 +10°C° 0.6 mm 12 mps 722 mmHg 83%
    11:00 +10°C° 0.6 mm 13 mps 722 mmHg 81%
    12:00 +12°C° 0.6 mm 14 mps 721 mmHg 80%
    13:00 +10°C° 0.2 mm 14 mps 722 mmHg 79%
    14:00 +10°C° 0.2 mm 14 mps 723 mmHg 78%
    15:00 +10°C° 0.2 mm 15 mps 723 mmHg 76%
    16:00 +9°C° 0 mm 13 mps 725 mmHg 76%
    17:00 +8°C° 0 mm 12 mps 726 mmHg 75%
    18:00 +8°C° 0 mm 10 mps 728 mmHg 75%
    19:00 +8°C° 0 mm 9 mps 728 mmHg 77%
    20:00 +7°C° 0 mm 8 mps 729 mmHg 80%
    21:00 +8°C° 0 mm 7 mps 730 mmHg 82%
    22:00 +9°C° 0.1 mm 6 mps 730 mmHg 85%
    23:00 +9°C° 0.1 mm 6 mps 730 mmHg 87%
    Show more